|
NORAD ID: 34819 Int'l Code: 1993-036ABJ
Perigee: 759.1 km
Apogee: 800.1 km
Inclination: 74.0 °
Period: 100.3 minutes
Semi major axis: 7150 km
Launch date: June 16, 1993
Source: Commonwealth of Independent States (former USSR) (CIS)
Note: This is SATELLITE DEBRIS
Two Line Element Set (TLE):
1 34819U 93036ABJ 13141.78939255 .00001865 00000-0 65041-3 0 8666
2 34819 074.0316 041.7337 0028652 166.5366 250.6388 14.35786526221205
Source:
NASA's NSSDC Master Catalog entry for COSMOS 2251 DEB
|